[[{"header":{"parameterUnit":"m.s-1","parameterCategory":1,"la1":30.2991,"la2":30.254,"lo1":-89.0895,"lo2":-89.0444,"dy":0.0017,"dx":0.0017,"nx":28,"ny":28,"refTime":"2025-04-22T09:00:00:Z","depth":0,"parameterNumber":2,"parameterNumberName":"U-component_of_WINDS"},"data":[0,0,0,0,0,0,0,0,0,0,0,0,0,0,0,0,0,0,0,0,0,0,0,0,0,0,0,0,0,0,0,0,0,0,0,0,0,0,0,0,0,0,0,0,0,0,0,0,0,0,0,0,0,0,0,0,0,0,-0.9082,-0.9082,0,-0.9144,-0.9145,-0.9146,-0.9168,-0.9167,-0.9167,-0.9167,-0.9233,-0.9235,-0.9237,0,0,0,0,0,0,0,0,0,0,0,0,0,-0.8985,-0.8986,-0.9082,-0.9083,-0.9083,-0.9144,-0.9145,-0.9146,-0.9168,-0.9167,-0.9167,-0.9167,-0.9233,-0.9235,-0.9237,0,0,0,0,0,0,0,0,0,0,0,0,0,-0.9035,-0.8987,-0.9082,-0.9102,-0.9104,-0.9144,-0.9145,-0.9146,-0.9168,-0.9167,-0.9167,-0.9167,-0.9232,-0.9235,-0.9238,-0.9263,0,0,-0.9247,-0.9248,0,0,0,0,0,0,0,0,-0.9032,-0.9039,-0.9098,-0.91,-0.9103,-0.9148,-0.9135,-0.9185,-0.9168,-0.9144,-0.9167,-0.9167,-0.9205,-0.921,-0.9223,-0.9266,-0.9269,-0.9247,-0.9249,-0.925,-0.9251,0,0,0,0,0,0,0,-0.9029,-0.9036,-0.9107,-0.9099,-0.9102,-0.9108,-0.9115,-0.9145,-0.9176,-0.9146,-0.9147,-0.9154,-0.9207,-0.922,-0.9225,-0.927,-0.9247,-0.9249,-0.9251,-0.9252,-0.9339,-0.9339,0,0,0,0,0,0,-0.9021,-0.9033,-0.9105,-0.9108,-0.9066,-0.911,-0.9118,-0.9134,-0.9175,-0.9181,-0.9155,-0.9155,-0.9215,-0.9221,-0.9227,-0.926,-0.925,-0.9253,-0.9254,-0.9338,-0.9339,-0.9339,0,0,0,0,0,0,-0.9019,-0.9028,-0.9102,-0.9071,-0.9081,-0.9112,-0.913,-0.9135,-0.9149,-0.9182,-0.9188,-0.9162,-0.9215,-0.9223,-0.9254,-0.9263,-0.9254,-0.9257,-0.9338,-0.9338,-0.9339,-0.9326,0,0,0,0,0,0,-0.9016,-0.9027,-0.9036,-0.9071,-0.9083,-0.9127,-0.9131,-0.9137,-0.9153,-0.9155,-0.9191,-0.9197,-0.9215,-0.9249,-0.9257,-0.9266,-0.9259,-0.9337,-0.9338,-0.9339,-0.9325,-0.9326,-0.9326,0,0,0,0,0,-0.9013,-0.903,-0.9036,-0.9045,-0.9095,-0.9127,-0.9134,-0.9154,-0.9154,-0.9164,-0.9186,-0.9196,-0.9261,-0.9252,-0.9261,-0.9272,-0.9337,-0.9338,-0.9339,-0.9325,-0.9326,-0.9326,0,0,0,0,0,0,-0.8995,-0.9035,-0.9042,-0.9071,-0.9095,-0.9131,-0.9144,-0.9154,-0.918,-0.918,-0.9205,-0.9213,-0.9243,-0.9261,-0.9251,-0.9299,-0.9299,-0.9302,-0.9286,-0.9287,-0.9287,-0.9282,-0.9262,0,0,0,0,0,-0.8994,-0.9016,-0.9051,-0.9073,-0.9085,-0.9112,-0.9127,-0.9141,-0.9168,-0.9178,-0.9203,-0.9229,-0.9256,-0.9272,-0.9299,-0.9329,-0.9337,-0.9341,-0.9341,-0.9341,-0.9343,-0.9361,-0.9363,-0.9343,-0.9343,-0.9343,0,0,-0.8993,-0.9018,-0.903,-0.907,-0.909,-0.9114,-0.9121,-0.9145,-0.9163,-0.9182,-0.9213,-0.9232,-0.9263,-0.9294,-0.9309,-0.931,-0.9351,-0.9342,-0.9342,-0.9344,-0.9362,-0.9364,-0.9366,-0.9344,-0.9344,-0.9344,0,0,-0.9003,-0.9023,-0.9044,-0.9065,-0.9096,-0.9115,-0.912,-0.9154,-0.9167,-0.9198,-0.9214,-0.9236,-0.9281,-0.9303,-0.932,-0.934,-0.935,-0.9348,-0.935,-0.9367,-0.9369,-0.937,-0.9377,-0.938,-0.935,-0.935,-0.935,0,-0.8997,-0.9032,-0.9054,-0.9078,-0.9095,-0.9113,-0.9135,-0.9155,-0.9193,-0.9205,-0.9206,-0.9264,-0.9286,-0.9323,-0.9328,-0.9341,-0.9348,-0.9343,-0.9366,-0.9368,-0.937,-0.9377,-0.938,-0.935,-0.935,-0.935,-0.935,0,-0.9025,-0.9049,-0.9062,-0.9098,-0.9117,-0.914,-0.9166,-0.9183,-0.9196,-0.9215,-0.9247,-0.9275,-0.9307,-0.9318,-0.933,-0.9357,-0.9356,-0.9361,-0.9362,-0.9371,-0.9378,-0.9381,-0.9349,-0.9349,-0.9349,-0.9349,0,0,-0.9023,-0.9072,-0.9076,-0.9093,-0.9129,-0.9149,-0.9174,-0.9205,-0.9219,-0.9246,-0.9267,-0.9306,-0.9311,-0.9331,-0.9347,-0.9362,-0.9376,-0.9366,-0.9367,-0.9366,-0.9408,-0.9403,-0.9406,-0.9384,-0.9385,-0.9385,-0.9405,0,-0.9038,-0.908,-0.9101,-0.9135,-0.9158,-0.9177,-0.9199,-0.9224,-0.9243,-0.9267,-0.9288,-0.9315,-0.932,-0.9332,-0.9348,-0.9371,-0.9385,-0.937,-0.9405,-0.9406,-0.9395,-0.9409,-0.9404,-0.9421,-0.9408,-0.9409,-0.9409,0,-0.9059,-0.9085,-0.9121,-0.9156,-0.9166,-0.9185,-0.9216,-0.9238,-0.9268,-0.9281,-0.9303,-0.9318,-0.9346,-0.9346,-0.9385,-0.9374,-0.9391,-0.9404,-0.9406,-0.9409,-0.9407,-0.9413,-0.9427,-0.943,-0.9414,-0.9413,-0.9413,0,-0.9055,-0.9099,-0.9126,-0.914,-0.9181,-0.9194,-0.9212,-0.9241,-0.9259,-0.9287,-0.9299,-0.933,-0.9347,-0.9371,-0.9395,-0.9392,-0.9432,-0.9434,-0.9444,-0.9444,-0.9451,-0.945,-0.9468,-0.9462,-0.9462,-0.9462,-0.9462,0,-0.9068,-0.9089,-0.9124,-0.9141,-0.9166,-0.9191,-0.9215,-0.9235,-0.9261,-0.9283,-0.9303,-0.9323,-0.9354,-0.9379,-0.9398,-0.9428,-0.9436,-0.9448,-0.9452,-0.9445,-0.9444,-0.9455,-0.9455,-0.9463,-0.9463,-0.9463,-0.9463,0,-0.9066,-0.909,-0.9121,-0.9158,-0.9168,-0.9184,-0.9216,-0.9234,-0.9255,-0.9282,-0.929,-0.9323,-0.9353,-0.938,-0.942,-0.9433,-0.9464,-0.947,-0.9453,-0.9456,-0.9465,-0.9463,-0.949,-0.9495,-0.9487,-0.9487,-0.9487,0,-0.9072,-0.9089,-0.9127,-0.9143,-0.916,-0.9185,-0.9203,-0.9229,-0.9248,-0.9284,-0.9298,-0.9329,-0.9356,-0.9404,-0.9432,-0.9463,-0.947,-0.9477,-0.9475,-0.9468,-0.947,-0.9468,-0.947,-0.9477,-0.9477,-0.9477,-0.9477,0,-0.9081,-0.9093,-0.9117,-0.9147,-0.9168,-0.9193,-0.9218,-0.923,-0.9261,-0.9281,-0.9312,-0.9332,-0.9374,-0.9405,-0.944,-0.946,-0.9474,-0.9478,-0.9482,-0.9474,-0.9464,-0.9469,-0.9453,-0.9477,-0.9477,-0.9477,-0.9477,-0.9477,-0.9084,-0.91,-0.9129,-0.9156,-0.9178,-0.9202,-0.922,-0.9243,-0.9269,-0.9303,-0.9318,-0.9349,-0.9381,-0.9429,-0.9449,-0.9475,-0.9478,-0.9483,-0.9485,-0.9486,-0.9484,-0.946,-0.9482,-0.9482,-0.9482,-0.9482,-0.9482,0,-0.9093,-0.9113,-0.9138,-0.9173,-0.9195,-0.9205,-0.9234,-0.9252,-0.9279,-0.9307,-0.9333,-0.9369,-0.94,-0.9431,-0.9464,-0.9479,-0.9486,-0.9487,-0.9485,-0.949,-0.9481,-0.9473,-0.948,-0.948,-0.948,-0.948,-0.948,-0.948,-0.9101,-0.9128,-0.9143,-0.9182,-0.9203,-0.9233,-0.9249,-0.9271,-0.9293,-0.9332,-0.9358,-0.9377,-0.9407,-0.9442,-0.9472,-0.948,-0.9492,-0.949,-0.9501,-0.9491,-0.9491,-0.949,-0.9484,-0.9493,-0.9493,-0.9508,-0.9508,-0.9508]},{"header":{"parameterUnit":"m.s-1","parameterCategory":1,"la1":30.2991,"la2":30.254,"lo1":-89.0895,"lo2":-89.0444,"dy":0.0017,"dx":0.0017,"nx":28,"ny":28,"refTime":"2025-04-22T09:00:00:Z","depth":0,"parameterNumber":3,"parameterNumberName":"V-component_of_WINDS"},"data":[0,0,0,0,0,0,0,0,0,0,0,0,0,0,0,0,0,0,0,0,0,0,0,0,0,0,0,0,0,0,0,0,0,0,0,0,0,0,0,0,0,0,0,0,0,0,0,0,0,0,0,0,0,0,0,0,0,0,2.4626,2.4624,0,2.4487,2.4486,2.4484,2.4497,2.4499,2.4501,2.4503,2.4357,2.4351,2.4345,0,0,0,0,0,0,0,0,0,0,0,0,0,2.49,2.4895,2.4626,2.4624,2.4623,2.4487,2.4486,2.4484,2.4497,2.4499,2.4502,2.4504,2.4359,2.4352,2.4345,0,0,0,0,0,0,0,0,0,0,0,0,0,2.4773,2.4894,2.4626,2.4613,2.461,2.4488,2.4485,2.4483,2.4496,2.4499,2.4502,2.4505,2.4361,2.4353,2.4344,2.4225,0,0,2.4317,2.4313,0,0,0,0,0,0,0,0,2.4781,2.4763,2.4617,2.4614,2.461,2.4513,2.4529,2.4396,2.4495,2.4539,2.4503,2.4507,2.4406,2.4394,2.436,2.4218,2.4212,2.4316,2.4311,2.4307,2.4304,0,0,0,0,0,0,0,2.4789,2.4769,2.4571,2.4614,2.4611,2.4613,2.4599,2.4504,2.4456,2.4536,2.4536,2.452,2.4405,2.4369,2.4357,2.4209,2.4316,2.4308,2.4303,2.43,2.3966,2.3963,0,0,0,0,0,0,2.4802,2.4776,2.4575,2.4567,2.4705,2.4606,2.4589,2.4541,2.4457,2.4448,2.4517,2.4521,2.4382,2.4367,2.4352,2.4209,2.4307,2.4299,2.4294,2.397,2.3966,2.3962,0,0,0,0,0,0,2.4808,2.4784,2.4581,2.4672,2.4646,2.4598,2.4543,2.4536,2.45,2.4443,2.4435,2.4489,2.4384,2.4364,2.4257,2.4204,2.4295,2.4287,2.3974,2.3969,2.3964,2.3921,0,0,0,0,0,0,2.4815,2.4786,2.474,2.4671,2.4641,2.4489,2.4539,2.4531,2.4486,2.4489,2.4415,2.4405,2.4385,2.4271,2.4249,2.4194,2.428,2.3979,2.3972,2.3965,2.3927,2.3915,2.3905,0,0,0,0,0,2.4825,2.4732,2.4737,2.4713,2.4583,2.4486,2.4469,2.4449,2.4481,2.4435,2.4399,2.4408,2.4214,2.4259,2.4235,2.4176,2.3982,2.3974,2.3966,2.3932,2.3918,2.3905,0,0,0,0,0,0,2.4793,2.4722,2.4728,2.4609,2.4554,2.4488,2.4428,2.4433,2.4366,2.4372,2.4349,2.4332,2.4225,2.419,2.4242,2.4059,2.4102,2.4089,2.4085,2.4071,2.406,2.407,2.4272,0,0,0,0,0,2.4772,2.47,2.4642,2.4543,2.4515,2.4477,2.4433,2.4423,2.4364,2.434,2.4296,2.4238,2.4164,2.4115,2.4044,2.3923,2.3908,2.3871,2.386,2.3851,2.384,2.3776,2.376,2.3936,2.3936,2.3936,0,0,2.4728,2.4681,2.4636,2.4535,2.4491,2.4417,2.4457,2.4375,2.432,2.4327,2.4225,2.4191,2.4124,2.4011,2.3958,2.3978,2.3788,2.3841,2.3834,2.3827,2.3766,2.375,2.3735,2.393,2.3931,2.3932,0,0,2.461,2.4567,2.4481,2.4437,2.4371,2.4347,2.4327,2.4261,2.424,2.4137,2.4142,2.4076,2.3948,2.3902,2.3861,2.3731,2.3738,2.3709,2.365,2.3588,2.3575,2.3562,2.3517,2.3501,2.3698,2.3697,2.3697,0,2.4563,2.4452,2.4436,2.4355,2.4311,2.4318,2.4232,2.4189,2.4102,2.4072,2.4096,2.394,2.3895,2.3772,2.3741,2.3708,2.3684,2.3716,2.3578,2.3565,2.3554,2.3511,2.3494,2.3694,2.3695,2.3695,2.3695,0,2.4399,2.4322,2.4261,2.418,2.413,2.4046,2.4017,2.3968,2.3964,2.3938,2.3834,2.3782,2.3702,2.3672,2.3665,2.3549,2.3564,2.3583,2.3626,2.3534,2.3494,2.3477,2.369,2.3691,2.3692,2.3693,0,0,2.4252,2.4168,2.4146,2.4111,2.4041,2.398,2.3899,2.3823,2.3782,2.3723,2.3654,2.3549,2.3568,2.3522,2.3511,2.3457,2.336,2.3483,2.3481,2.3463,2.3232,2.3218,2.3199,2.3365,2.3362,2.3359,2.3238,0,2.4128,2.3985,2.397,2.3841,2.3772,2.3779,2.3708,2.3658,2.3632,2.3569,2.354,2.3467,2.3496,2.3469,2.3416,2.3383,2.3313,2.3392,2.3301,2.3298,2.3318,2.3177,2.3161,2.3049,2.3222,2.3219,2.3217,0,2.3963,2.3903,2.3769,2.3712,2.3682,2.3619,2.355,2.3489,2.3433,2.3419,2.337,2.3367,2.3284,2.3332,2.3217,2.3271,2.3234,2.3212,2.3207,2.3198,2.3252,2.3165,2.3013,2.2996,2.3191,2.3193,2.3195,0,2.3872,2.3757,2.3663,2.3633,2.3564,2.352,2.3489,2.3436,2.3393,2.3332,2.3304,2.3234,2.3196,2.3143,2.3121,2.3158,2.3009,2.3054,2.2995,2.2996,2.2962,2.2965,2.2803,2.2938,2.2938,2.2938,2.2939,0,2.3735,2.3652,2.3622,2.3564,2.3473,2.3457,2.3367,2.3338,2.3292,2.3229,2.3231,2.3171,2.3147,2.3084,2.3067,2.2977,2.2959,2.2945,2.2942,2.2945,2.2947,2.292,2.2927,2.2934,2.2935,2.2936,2.2936,0,2.3617,2.3593,2.3491,2.3436,2.342,2.3356,2.3309,2.3253,2.323,2.315,2.3131,2.3094,2.302,2.2995,2.2904,2.2894,2.2789,2.2791,2.2808,2.2807,2.275,2.2757,2.2565,2.254,2.2691,2.269,2.2689,0,2.353,2.3468,2.3408,2.3367,2.3336,2.3269,2.3226,2.3209,2.3164,2.3099,2.3051,2.2979,2.292,2.2802,2.2767,2.27,2.2701,2.2639,2.2691,2.2697,2.2702,2.2706,2.2701,2.2629,2.2627,2.2626,2.2625,0,2.3381,2.3373,2.3312,2.3248,2.3198,2.3145,2.3095,2.3061,2.3037,2.2987,2.2913,2.2868,2.2778,2.2707,2.2639,2.2607,2.2612,2.261,2.2593,2.2595,2.2608,2.2602,2.2783,2.2614,2.2615,2.2616,2.2616,2.2617,2.3276,2.3223,2.3174,2.3106,2.3068,2.3022,2.2968,2.294,2.2879,2.2806,2.28,2.2721,2.267,2.2579,2.2545,2.2483,2.25,2.2475,2.2469,2.2463,2.246,2.2619,2.2471,2.2471,2.2471,2.2471,2.2472,0,2.3128,2.3098,2.3037,2.2968,2.2916,2.2929,2.2875,2.283,2.2761,2.2714,2.2658,2.2575,2.2507,2.2469,2.2401,2.2359,2.236,2.2342,2.2345,2.2338,2.2447,2.247,2.2343,2.2343,2.2343,2.2343,2.2343,2.2343,2.3044,2.2955,2.2943,2.2836,2.2806,2.273,2.2699,2.2657,2.262,2.2528,2.2473,2.2449,2.2406,2.2337,2.2276,2.2266,2.2242,2.2222,2.2215,2.2317,2.233,2.2343,2.2364,2.2217,2.2216,2.2111,2.211,2.2109]}]]